﻿測定場所 (Monitoring sites),日付 (Measurement date),時間 (Measurement time),線量率 最大値 (max) μGy/h,線量率 最小値 (min) μGy/h,線量率 平均値 (average) μGy/h,
小平 (Kodaira),2012-06-17,23:01～24:00,0.0416,0.0362,0.0387,
小平 (Kodaira),2012-06-17,22:01～23:00,0.0405,0.0359,0.0383,
小平 (Kodaira),2012-06-17,21:01～22:00,0.0411,0.0349,0.0386,
小平 (Kodaira),2012-06-17,20:01～21:00,0.0419,0.0360,0.0388,
小平 (Kodaira),2012-06-17,19:01～20:00,0.0416,0.0364,0.0384,
小平 (Kodaira),2012-06-17,18:01～19:00,0.0425,0.0352,0.0387,
小平 (Kodaira),2012-06-17,17:01～18:00,0.0416,0.0365,0.0386,
小平 (Kodaira),2012-06-17,16:01～17:00,0.0425,0.0360,0.0387,
小平 (Kodaira),2012-06-17,15:01～16:00,0.0406,0.0363,0.0384,
小平 (Kodaira),2012-06-17,14:01～15:00,0.0414,0.0361,0.0385,
小平 (Kodaira),2012-06-17,13:01～14:00,0.0418,0.0359,0.0383,
小平 (Kodaira),2012-06-17,12:01～13:00,0.0429,0.0356,0.0387,
小平 (Kodaira),2012-06-17,11:01～12:00,0.0426,0.0365,0.0394,
小平 (Kodaira),2012-06-17,10:01～11:00,0.0428,0.0370,0.0403,
小平 (Kodaira),2012-06-17,09:01～10:00,0.0461,0.0367,0.0408,
小平 (Kodaira),2012-06-17,08:01～09:00,0.0431,0.0365,0.0389,
小平 (Kodaira),2012-06-17,07:01～08:00,0.0423,0.0366,0.0392,
小平 (Kodaira),2012-06-17,06:01～07:00,0.0437,0.0357,0.0395,
小平 (Kodaira),2012-06-17,05:01～06:00,0.0437,0.0376,0.0411,
小平 (Kodaira),2012-06-17,04:01～05:00,0.0444,0.0379,0.0409,
小平 (Kodaira),2012-06-17,03:01～04:00,0.0452,0.0363,0.0400,
小平 (Kodaira),2012-06-17,02:01～03:00,0.0433,0.0359,0.0391,
小平 (Kodaira),2012-06-17,01:01～02:00,0.0411,0.0359,0.0385,
小平 (Kodaira),2012-06-17,00:01～01:00,0.0417,0.0352,0.0381,
小平 (Kodaira),2012-06-16,23:01～24:00,0.0411,0.0358,0.0380,
小平 (Kodaira),2012-06-16,22:01～23:00,0.0434,0.0365,0.0390,
小平 (Kodaira),2012-06-16,21:01～22:00,0.0416,0.0364,0.0391,
小平 (Kodaira),2012-06-16,20:01～21:00,0.0430,0.0368,0.0403,
小平 (Kodaira),2012-06-16,19:01～20:00,0.0405,0.0353,0.0381,
小平 (Kodaira),2012-06-16,18:01～19:00,0.0410,0.0359,0.0378,
小平 (Kodaira),2012-06-16,17:01～18:00,0.0415,0.0352,0.0380,
小平 (Kodaira),2012-06-16,16:01～17:00,0.0400,0.0357,0.0376,
小平 (Kodaira),2012-06-16,15:01～16:00,0.0409,0.0354,0.0375,
小平 (Kodaira),2012-06-16,14:01～15:00,0.0406,0.0359,0.0379,
小平 (Kodaira),2012-06-16,13:01～14:00,0.0434,0.0363,0.0384,
小平 (Kodaira),2012-06-16,12:01～13:00,0.0420,0.0362,0.0393,
小平 (Kodaira),2012-06-16,11:01～12:00,0.0417,0.0362,0.0387,
小平 (Kodaira),2012-06-16,10:01～11:00,0.0437,0.0359,0.0389,
小平 (Kodaira),2012-06-16,09:01～10:00,0.0441,0.0365,0.0396,
小平 (Kodaira),2012-06-16,08:01～09:00,0.0442,0.0366,0.0398,
小平 (Kodaira),2012-06-16,07:01～08:00,0.0425,0.0358,0.0392,
小平 (Kodaira),2012-06-16,06:01～07:00,0.0417,0.0352,0.0383,
小平 (Kodaira),2012-06-16,05:01～06:00,0.0414,0.0359,0.0383,
小平 (Kodaira),2012-06-16,04:01～05:00,0.0422,0.0357,0.0381,
小平 (Kodaira),2012-06-16,03:01～04:00,0.0425,0.0362,0.0382,
小平 (Kodaira),2012-06-16,02:01～03:00,0.0412,0.0362,0.0387,
小平 (Kodaira),2012-06-16,01:01～02:00,0.0411,0.0359,0.0381,
小平 (Kodaira),2012-06-16,00:01～01:00,0.0419,0.0362,0.0383,
小平 (Kodaira),2012-06-15,23:01～24:00,0.0404,0.0358,0.0378,
小平 (Kodaira),2012-06-15,22:01～23:00,0.0403,0.0359,0.0380,
小平 (Kodaira),2012-06-15,21:01～22:00,0.0405,0.0351,0.0380,
小平 (Kodaira),2012-06-15,20:01～21:00,0.0425,0.0359,0.0382,
小平 (Kodaira),2012-06-15,19:01～20:00,0.0422,0.0360,0.0383,
小平 (Kodaira),2012-06-15,18:01～19:00,0.0412,0.0362,0.0386,
小平 (Kodaira),2012-06-15,17:01～18:00,0.0430,0.0361,0.0385,
小平 (Kodaira),2012-06-15,16:01～17:00,0.0417,0.0362,0.0380,
小平 (Kodaira),2012-06-15,15:01～16:00,0.0442,0.0357,0.0384,
小平 (Kodaira),2012-06-15,14:01～15:00,0.0416,0.0359,0.0381,
小平 (Kodaira),2012-06-15,13:01～14:00,0.0419,0.0355,0.0383,
小平 (Kodaira),2012-06-15,12:01～13:00,0.0414,0.0356,0.0382,
小平 (Kodaira),2012-06-15,11:01～12:00,0.0418,0.0361,0.0384,
小平 (Kodaira),2012-06-15,10:01～11:00,0.0416,0.0359,0.0387,
小平 (Kodaira),2012-06-15,09:01～10:00,0.0412,0.0355,0.0383,
小平 (Kodaira),2012-06-15,08:01～09:00,0.0420,0.0363,0.0387,
小平 (Kodaira),2012-06-15,07:01～08:00,0.0417,0.0358,0.0384,
小平 (Kodaira),2012-06-15,06:01～07:00,0.0426,0.0359,0.0381,
小平 (Kodaira),2012-06-15,05:01～06:00,0.0418,0.0366,0.0385,
小平 (Kodaira),2012-06-15,04:01～05:00,0.0420,0.0356,0.0384,
小平 (Kodaira),2012-06-15,03:01～04:00,0.0421,0.0362,0.0383,
小平 (Kodaira),2012-06-15,02:01～03:00,0.0406,0.0360,0.0376,
小平 (Kodaira),2012-06-15,01:01～02:00,0.0418,0.0354,0.0379,
小平 (Kodaira),2012-06-15,00:01～01:00,0.0413,0.0349,0.0378,
小平 (Kodaira),2012-06-14,23:01～24:00,0.0410,0.0351,0.0377,
小平 (Kodaira),2012-06-14,22:01～23:00,0.0408,0.0359,0.0380,
小平 (Kodaira),2012-06-14,21:01～22:00,0.0413,0.0354,0.0378,
小平 (Kodaira),2012-06-14,20:01～21:00,0.0421,0.0356,0.0380,
小平 (Kodaira),2012-06-14,19:01～20:00,0.0414,0.0356,0.0379,
小平 (Kodaira),2012-06-14,18:01～19:00,0.0407,0.0357,0.0379,
小平 (Kodaira),2012-06-14,17:01～18:00,0.0410,0.0365,0.0381,
小平 (Kodaira),2012-06-14,16:01～17:00,0.0425,0.0355,0.0381,
小平 (Kodaira),2012-06-14,15:01～16:00,0.0411,0.0355,0.0381,
小平 (Kodaira),2012-06-14,14:01～15:00,0.0413,0.0359,0.0379,
小平 (Kodaira),2012-06-14,13:01～14:00,0.0425,0.0365,0.0382,
小平 (Kodaira),2012-06-14,12:01～13:00,0.0412,0.0358,0.0381,
小平 (Kodaira),2012-06-14,11:01～12:00,0.0414,0.0354,0.0380,
小平 (Kodaira),2012-06-14,10:01～11:00,0.0412,0.0353,0.0383,
小平 (Kodaira),2012-06-14,09:01～10:00,0.0411,0.0358,0.0381,
小平 (Kodaira),2012-06-14,08:01～09:00,0.0411,0.0353,0.0378,
小平 (Kodaira),2012-06-14,07:01～08:00,0.0409,0.0352,0.0375,
小平 (Kodaira),2012-06-14,06:01～07:00,0.0406,0.0355,0.0378,
小平 (Kodaira),2012-06-14,05:01～06:00,0.0406,0.0354,0.0377,
小平 (Kodaira),2012-06-14,04:01～05:00,0.0415,0.0343,0.0378,
小平 (Kodaira),2012-06-14,03:01～04:00,0.0412,0.0356,0.0375,
小平 (Kodaira),2012-06-14,02:01～03:00,0.0424,0.0357,0.0381,
小平 (Kodaira),2012-06-14,01:01～02:00,0.0404,0.0358,0.0377,
小平 (Kodaira),2012-06-14,00:01～01:00,0.0411,0.0355,0.0377,
小平 (Kodaira),2012-06-13,23:01～24:00,0.0421,0.0364,0.0379,
小平 (Kodaira),2012-06-13,22:01～23:00,0.0421,0.0355,0.0378,
小平 (Kodaira),2012-06-13,21:01～22:00,0.0413,0.0353,0.0377,
小平 (Kodaira),2012-06-13,20:01～21:00,0.0415,0.0359,0.0378,
小平 (Kodaira),2012-06-13,19:01～20:00,0.0405,0.0352,0.0375,
小平 (Kodaira),2012-06-13,18:01～19:00,0.0412,0.0356,0.0377,
小平 (Kodaira),2012-06-13,17:01～18:00,0.0421,0.0354,0.0379,
小平 (Kodaira),2012-06-13,16:01～17:00,0.0408,0.0350,0.0375,
小平 (Kodaira),2012-06-13,15:01～16:00,0.0407,0.0350,0.0377,
小平 (Kodaira),2012-06-13,14:01～15:00,0.0413,0.0359,0.0376,
小平 (Kodaira),2012-06-13,13:01～14:00,0.0407,0.0358,0.0376,
小平 (Kodaira),2012-06-13,12:01～13:00,0.0413,0.0354,0.0376,
小平 (Kodaira),2012-06-13,11:01～12:00,0.0406,0.0355,0.0374,
小平 (Kodaira),2012-06-13,10:01～11:00,0.0412,0.0362,0.0378,
小平 (Kodaira),2012-06-13,09:01～10:00,0.0411,0.0350,0.0377,
小平 (Kodaira),2012-06-13,08:01～09:00,0.0406,0.0354,0.0379,
小平 (Kodaira),2012-06-13,07:01～08:00,0.0412,0.0357,0.0380,
小平 (Kodaira),2012-06-13,06:01～07:00,0.0411,0.0356,0.0378,
小平 (Kodaira),2012-06-13,05:01～06:00,0.0413,0.0353,0.0381,
小平 (Kodaira),2012-06-13,04:01～05:00,0.0408,0.0363,0.0381,
小平 (Kodaira),2012-06-13,03:01～04:00,0.0438,0.0367,0.0397,
小平 (Kodaira),2012-06-13,02:01～03:00,0.0426,0.0369,0.0398,
小平 (Kodaira),2012-06-13,01:01～02:00,0.0417,0.0362,0.0387,
小平 (Kodaira),2012-06-13,00:01～01:00,0.0417,0.0367,0.0392,
小平 (Kodaira),2012-06-12,23:01～24:00,0.0448,0.0371,0.0408,
小平 (Kodaira),2012-06-12,22:01～23:00,0.0481,0.0384,0.0435,
小平 (Kodaira),2012-06-12,21:01～22:00,0.0463,0.0399,0.0429,
小平 (Kodaira),2012-06-12,20:01～21:00,0.0470,0.0397,0.0435,
小平 (Kodaira),2012-06-12,19:01～20:00,0.0480,0.0423,0.0448,
小平 (Kodaira),2012-06-12,18:01～19:00,0.0491,0.0416,0.0452,
小平 (Kodaira),2012-06-12,17:01～18:00,0.0497,0.0415,0.0457,
小平 (Kodaira),2012-06-12,16:01～17:00,0.0507,0.0435,0.0463,
小平 (Kodaira),2012-06-12,15:01～16:00,0.0493,0.0437,0.0463,
小平 (Kodaira),2012-06-12,14:01～15:00,0.0492,0.0434,0.0459,
小平 (Kodaira),2012-06-12,13:01～14:00,0.0486,0.0399,0.0443,
小平 (Kodaira),2012-06-12,12:01～13:00,0.0452,0.0372,0.0414,
小平 (Kodaira),2012-06-12,11:01～12:00,0.0410,0.0361,0.0382,
小平 (Kodaira),2012-06-12,10:01～11:00,0.0410,0.0357,0.0377,
小平 (Kodaira),2012-06-12,09:01～10:00,0.0412,0.0355,0.0378,
小平 (Kodaira),2012-06-12,08:01～09:00,0.0410,0.0359,0.0379,
小平 (Kodaira),2012-06-12,07:01～08:00,0.0410,0.0354,0.0375,
小平 (Kodaira),2012-06-12,06:01～07:00,0.0419,0.0364,0.0381,
小平 (Kodaira),2012-06-12,05:01～06:00,0.0410,0.0352,0.0379,
小平 (Kodaira),2012-06-12,04:01～05:00,0.0413,0.0353,0.0374,
小平 (Kodaira),2012-06-12,03:01～04:00,0.0413,0.0359,0.0377,
小平 (Kodaira),2012-06-12,02:01～03:00,0.0417,0.0348,0.0379,
小平 (Kodaira),2012-06-12,01:01～02:00,0.0410,0.0356,0.0380,
小平 (Kodaira),2012-06-12,00:01～01:00,0.0407,0.0353,0.0379,
小平 (Kodaira),2012-06-11,23:01～24:00,0.0417,0.0350,0.0379,
小平 (Kodaira),2012-06-11,22:01～23:00,0.0411,0.0358,0.0378,
小平 (Kodaira),2012-06-11,21:01～22:00,0.0403,0.0357,0.0376,
小平 (Kodaira),2012-06-11,20:01～21:00,0.0416,0.0360,0.0380,
小平 (Kodaira),2012-06-11,19:01～20:00,0.0421,0.0356,0.0384,
小平 (Kodaira),2012-06-11,18:01～19:00,0.0419,0.0359,0.0385,
小平 (Kodaira),2012-06-11,17:01～18:00,0.0411,0.0350,0.0380,
小平 (Kodaira),2012-06-11,16:01～17:00,0.0406,0.0358,0.0379,
小平 (Kodaira),2012-06-11,15:01～16:00,0.0415,0.0354,0.0381,
小平 (Kodaira),2012-06-11,14:01～15:00,0.0418,0.0358,0.0382,
小平 (Kodaira),2012-06-11,13:01～14:00,0.0415,0.0362,0.0382,
小平 (Kodaira),2012-06-11,12:01～13:00,0.0419,0.0363,0.0389,
小平 (Kodaira),2012-06-11,11:01～12:00,0.0431,0.0367,0.0402,
小平 (Kodaira),2012-06-11,10:01～11:00,0.0468,0.0379,0.0428,
小平 (Kodaira),2012-06-11,09:01～10:00,0.0481,0.0386,0.0433,
小平 (Kodaira),2012-06-11,08:01～09:00,0.0420,0.0362,0.0389,
小平 (Kodaira),2012-06-11,07:01～08:00,0.0413,0.0353,0.0382,
小平 (Kodaira),2012-06-11,06:01～07:00,0.0423,0.0363,0.0381,
小平 (Kodaira),2012-06-11,05:01～06:00,0.0429,0.0362,0.0385,
小平 (Kodaira),2012-06-11,04:01～05:00,0.0409,0.0361,0.0384,
小平 (Kodaira),2012-06-11,03:01～04:00,0.0416,0.0359,0.0379,
小平 (Kodaira),2012-06-11,02:01～03:00,0.0416,0.0362,0.0383,
小平 (Kodaira),2012-06-11,01:01～02:00,0.0415,0.0364,0.0389,
小平 (Kodaira),2012-06-11,00:01～01:00,0.0426,0.0364,0.0389,
